Content
SEND FEEDBACK

Daily
Averages
Monthly
Summary
Greece

MICHIANIO, GREECE


Home > Europe > Greece
Elevation: 13 feet     Latitude: 40 31N     Longitude: 022 58E

WEATHER
 
SELECT A DAY
Number of Records: 100,375;   Date Range: 7/3/96 - 10/30/14
 
SHARE

PRINT THIS DATA

[ ← Previous Day ]
WEATHER ALMANAC - FEBRUARY 13, 2013
[ Next Day → ]
[ °C ]   °F
Weather ElementAverageHighLow
Temperature50.4 °F55.4 °F (8:20 am)42.8 °F (1:50 am)
Dewpoint44.1 °F48.2 °F (2:50 pm)37.4 °F (1:50 am)
Humidity78.6 %87 % (11:20 am)63 % (8:50 am)
Barometer29.88 in29.95 in (12:50 am)29.83 in (11:20 am)
Wind Speed9.1 mph20.7 mph (9:50 am)
Wind Gust25.3 mph (11:20 am)
Weather ElementAverage
Visibility6 mi
Wind DirectionSE (138.4 °)

Weather ElementTotal
Precipitation---
Heating Degree Days15.9 (Base 65)
Averaged from 50 records on February 13, 2013
WEATHER CONDITIONS BREAKOUT
WIND DIRECTION BREAKOUT
WEATHER BY HOUR - FEBRUARY 13, 2013
[ °C ]   °F
Local TimeTemperatureDewpointHumidityBarometerVisibilityWind DirectionWind SpeedGust SpeedPrecipitationEventsConditions
12:50 AM46.4 °F41.0 °F81 %29.95 in6.2 miWest (280°)5.8 mphScattered Clouds
1:20 AM46.4 °F41.0 °F81 %29.95 in6.2 miWest (280°)5.8 mphScattered Clouds
1:50 AM42.8 °F37.4 °F81 %29.95 in6.2 miVariable3.5 mphMostly Cloudy
2:00 AM43.0 °F38.0 °F74 %29.95 in6.0 mi°3.5 mphPartly Cloudy
2:20 AM44.6 °F39.2 °F81 %29.92 in6.2 miCalmMostly Cloudy
3:20 AM51.8 °F46.4 °F82 %29.92 in6.2 miWSW (240°)8.1 mphMostly Cloudy
3:50 AM51.8 °F46.4 °F82 %29.89 in6.2 miWSW (240°)8.1 mphMostly Cloudy
4:20 AM51.8 °F46.4 °F82 %29.89 in6.2 miWSW (240°)10.4 mphMostly Cloudy
4:50 AM51.8 °F46.4 °F82 %29.89 in6.2 miWSW (250°)6.9 mphMostly Cloudy
5:20 AM51.8 °F46.4 °F82 %29.89 in6.2 miWSW (250°)6.9 mphMostly Cloudy
5:50 AM53.6 °F46.4 °F77 %29.89 in6.2 miSE (140°)10.4 mphMostly Cloudy
6:20 AM53.6 °F44.6 °F72 %29.86 in6.2 miESE (120°)11.5 mphMostly Cloudy
6:50 AM53.6 °F44.6 °F72 %29.86 in6.2 miESE (120°)11.5 mphRainLight Rain
7:20 AM51.8 °F46.4 °F82 %29.86 in6.2 miSE (130°)9.2 mphRainLight Rain
7:50 AM51.8 °F46.4 °F82 %29.86 in6.2 miESE (120°)6.9 mphRainLight Rain
8:00 AM52.0 °F46.0 °F71 %29.88 in6.0 miESE (120°)6.9 mphRainLight Rain
8:20 AM55.4 °F44.6 °F67 %29.86 in6.2 miSE (130°)16.1 mphOvercast
8:50 AM55.4 °F42.8 °F63 %29.86 in6.2 miSE (140°)13.8 mphRainLight Rain
9:20 AM51.8 °F44.6 °F76 %29.89 in5.0 miSSE (150°)19.6 mphRain-ThunderstormLight Thunderstorms and Rain
9:50 AM48.2 °F42.8 °F82 %29.89 in1.2 miSouth (180°)20.7 mphRainRain
10:20 AM48.2 °F42.8 °F82 %29.89 in2.5 miSE (140°)12.7 mphRainRain
10:50 AM50.0 °F44.6 °F82 %29.89 in5.0 miSouth (170°)9.2 mphRainLight Rain
11:20 AM48.2 °F44.6 °F87 %29.83 in6.2 miEast (90°)13.8 mph25.3 mphRainLight Rain
11:50 AM50.0 °F42.8 °F76 %29.86 in6.2 miESE (120°)15.0 mphMostly Cloudy
12:20 PM50.0 °F44.6 °F82 %29.86 in6.2 miESE (120°)13.8 mphMostly Cloudy
12:50 PM51.8 °F44.6 °F76 %29.83 in6.2 miESE (110°)12.7 mphMostly Cloudy
1:20 PM51.8 °F44.6 °F76 %29.86 in6.2 miESE (110°)12.7 mphMostly Cloudy
1:50 PM53.6 °F46.4 °F77 %29.83 in6.2 miESE (120°)10.4 mphMostly Cloudy
2:00 PM53.0 °F46.0 °F69 %29.85 in6.0 miESE (120°)10.4 mphPartly Cloudy
2:20 PM53.6 °F46.4 °F77 %29.83 in6.2 miSE (130°)10.4 mphMostly Cloudy
2:50 PM55.4 °F48.2 °F77 %29.83 in6.2 miESE (120°)8.1 mphMostly Cloudy
3:20 PM55.4 °F46.4 °F72 %29.83 in6.2 miESE (110°)8.1 mphMostly Cloudy
3:50 PM55.4 °F46.4 °F72 %29.86 in6.2 miESE (110°)9.2 mphMostly Cloudy
4:20 PM55.4 °F46.4 °F72 %29.86 in6.2 miSE (130°)10.4 mphMostly Cloudy
4:50 PM55.4 °F46.4 °F72 %29.86 in6.2 miSE (130°)9.2 mphMostly Cloudy
5:20 PM55.4 °F46.4 °F72 %29.86 in6.2 miSE (130°)8.1 mphMostly Cloudy
5:50 PM53.6 °F46.4 °F77 %29.86 in6.2 miESE (120°)9.2 mphScattered Clouds
6:20 PM51.8 °F44.6 °F76 %29.86 in6.2 miSE (130°)9.2 mphScattered Clouds
6:50 PM50.0 °F44.6 °F82 %29.86 in6.2 miESE (120°)6.9 mphScattered Clouds
7:20 PM48.2 °F42.8 °F82 %29.89 in6.2 miESE (120°)5.8 mphScattered Clouds
7:50 PM48.2 °F42.8 °F82 %29.89 in6.2 miESE (120°)6.9 mphScattered Clouds
8:00 PM47.0 °F43.0 °F80 %29.91 in6.0 miESE (120°)6.9 mphPartly Cloudy
8:20 PM46.4 °F42.8 °F87 %29.89 in6.2 miESE (120°)6.9 mphScattered Clouds
8:50 PM46.4 °F42.8 °F87 %29.89 in6.2 miESE (120°)4.6 mphScattered Clouds
9:20 PM46.4 °F42.8 °F87 %29.89 in6.2 miESE (120°)4.6 mphScattered Clouds
9:50 PM46.4 °F42.8 °F87 %29.89 in6.2 miESE (120°)6.9 mphScattered Clouds
10:20 PM46.4 °F42.8 °F87 %29.92 in6.2 miESE (120°)6.9 mphScattered Clouds
10:50 PM46.4 °F41.0 °F81 %29.92 in6.2 miESE (120°)6.9 mphScattered Clouds
11:20 PM46.4 °F41.0 °F81 %29.92 in6.2 miESE (120°)6.9 mphScattered Clouds
11:50 PM46.4 °F41.0 °F81 %29.92 in6.2 miESE (120°)6.9 mphScattered Clouds
Hourly data recorded from LGTS, located miles away from Michianio, Greece







STORIES FROM OUR PARTNERS